STARLINK-1462 (45770 NORAD) Tracking and Keplerian Element Data

This shows tracking and keplerian element data for the satellite.

Feedback or suggestion? Click here.




ElementValue
Catalog45770
NameSTARLINK-1462
Epoch Orbit462
Epoch Day186.50001157
Epoch Year2020
RAAN192.7025
Inclination53.0004
Eccentricity0.0001258
Argument of Perigee68.6138
Mean Anonmoly140.8943
Mean Motion15.62760984
Decay Rate-0.00033101
L11 45770U 20038AS 20186.50001157 -.00033101 00000-0 -35701-3 0 9991
L22 45770 53.0004 192.7025 0001258 68.6138 140.8943 15.62760984 4620

Live tracking and technical data element details for STARLINK-1462 (NORAD 45770). STARLINK-1462 can be tracked NOW for your location showing map with azimuth and elevation plus other details from your city location.

Track the satellite on the map from your city or location and see movement details for azimuth, elevation, latitude, longitude, range, height, and movement on the map or in text.







IsCatalogInMostPopularTable: catalog: 45770, numindb: 4
Update: records affected: 1



GetName: 45770 STARLINK-1462

Hit Count: updated at: Sun, 05 Jul 2020 16:29:58 GMT